Regional Weather Roundup
Issued by NWS

Home | Current Version | Previous Version | Graphics & Text | Print | Product List | Glossary On
Versions: 1 2 3 4 5 6 7 8 9 10 11 12 13 14 15 16 17 18 19 20 21 22 23 24 25 26 27 28 29 30 31 32 33 34 35 36 37 38 39 40 41 42 43 44 45 46 47 48 49 50
000
ASUS43 KOAX 250910
RWRNE

WEATHER ROUNDUP FOR NEBRASKA
NATIONAL WEATHER SERVICE OMAHA NE
300 AM CST THU DEC 25 2014

NOTES: SATELLITE DATA IS BEING USED TO AUGMENT CLOUD COVER ABOVE
       12000 FEET.
       "FAIR" INDICATES FEW OR NO CLOUDS BELOW 12,000 FEET WITH NO
       SIGNIFICANT WEATHER AND/OR OBSTRUCTIONS TO VISIBILITY.

  * THESE STATIONS DO NOT REPORT WEATHER SUCH AS RAIN...SNOW OR FOG.

NEZ001>004-019>022-054>056-251000-
NEBRASKA PANHANDLE

CITY           SKY/WX    TMP DP  RH WIND       PRES   REMARKS
SCOTTSBLUFF    CLOUDY    36  27  69 E5        29.43R WCI  32
ALLIANCE       CLOUDY    32  28  85 CALM      29.43R
CHADRON        CLOUDY    34  26  72 E6        29.43F WCI  29
KIMBALL        CLOUDY    35  26  68 W6        29.42F WCI  30
SIDNEY         CLOUDY    32  23  69 NW12      29.43F WCI  23
$$

NEZ057>060-069>072-079>082-251000-
SOUTHWEST NEBRASKA

CITY           SKY/WX    TMP DP  RH WIND       PRES   REMARKS
NORTH PLATTE   CLOUDY    26  23  88 SE5       29.48F WCI  20
IMPERIAL       CLOUDY    25  20  81 E3        29.45F
LEXINGTON      MOCLDY    29  26  88 E5        29.51S WCI  24
MCCOOK         CLOUDY    32  21  64 SE3       29.46F
OGALLALA       CLOUDY    22  21  93 CALM      29.46R
$$

NEZ005>010-023>029-035>040-094-251000-
NORTH CENTRAL NEBRASKA

CITY           SKY/WX    TMP DP  RH WIND       PRES   REMARKS
VALENTINE      CLOUDY    30  26  85 CALM      29.45R
AINSWORTH      CLOUDY    34  28  76 SW8       29.45R WCI  27
BROKEN BOW     CLOUDY    31  25  78 S3        29.49S
O`NEILL        CLOUDY    29  25  86 S5        29.49F WCI  24
ORD            CLOUDY    29  24  82 SE5       29.52R WCI  24
THEDFORD       CLOUDY    33  26  73 CALM      29.46S
$$

NEZ041-046>049-061>064-073>077-083>087-251000-
SOUTH CENTRAL NEBRASKA

CITY           SKY/WX    TMP DP  RH WIND       PRES   REMARKS
GRAND ISLAND   CLOUDY    33  21  61 S9        29.57S WCI  25
AURORA         CLOUDY    32  23  70 S10       29.58S WCI  24
HASTINGS       CLOUDY    32  20  61 S10       29.55F WCI  24
HEBRON         CLOUDY    35  24  64 S10       29.63F WCI  27
HOLDREGE       CLOUDY    30  20  66 S6        29.53S WCI  24
KEARNEY *      CLOUDY    28  19  69 S7        29.54F WCI  21
YORK           CLOUDY    32  27  80 S10       29.60S WCI  24
$$

NEZ011>018-030>034-042>045-251000-
NORTHEAST NEBRASKA

CITY           SKY/WX    TMP DP  RH WIND       PRES   REMARKS
NORFOLK        PTCLDY    30  23  75 VRB6      29.54F WCI  24
ALBION         MOCLDY    29  23  77 SE3       29.55R
BLAIR          PTCLDY    31  27  84 S13       29.63R WCI  21
COLUMBUS *     PTCLDY    32  21  64 S10       29.60R WCI  24
FREMONT        PTCLDY    32  27  83 CALM      29.63R
TEKAMAH        CLEAR     30  27  88 S12       29.64R WCI  20
WAYNE          PTCLDY    27  24  87 S9        29.57S WCI  18
$$

NEZ050>053-065>068-078-088>093-251000-
SOUTHEAST NEBRASKA

CITY           SKY/WX    TMP DP  RH WIND       PRES   REMARKS
LINCOLN        CLEAR     32  26  78 S10       29.65S WCI  24
OMAHA EPPLEY   PTCLDY    30  27  88 S12       29.67S WCI  20
BEATRICE       PTCLDY    33  26  76 S10       29.67R WCI  25
FALLS CITY     MOCLDY    32  27  81 S14       29.72S WCI  22
NEBRASKA CITY  PTCLDY    32  26  79 S13       29.68F WCI  22
PLATTSMOUTH    PTCLDY    31  26  83 S15       29.66S WCI  20
$$

NEZ044-045-051>053-067-251000-
OMAHA AREA

CITY           SKY/WX    TMP DP  RH WIND       PRES   REMARKS
OMAHA EPPLEY   PTCLDY    30  27  88 S12       29.67S WCI  20
BLAIR          PTCLDY    31  27  84 S13       29.63R WCI  21
FREMONT        PTCLDY    32  27  83 CALM      29.63R
MILLARD        PTCLDY    29  26  87 SE7       29.66S WCI  22
OFFUTT AFB     PTCLDY    28  25  91 SE3       29.66S
PLATTSMOUTH    PTCLDY    31  26  83 S15       29.66S WCI  20
WAHOO          FAIR      26  23  87 S6        29.63S WCI  19
$$



USA.gov is the U.S. government's official web portal to all federal, state and local government web resources and services.